Flag for Greenland Weather past 2 weeks in Ittoqqortoormiit, Greenland

Now
18 °F

Partly sunny.


Feels Like: 5 °F
Forecast: -10 / 8 °F
Wind: 12 mph from North

Location: Scoresbysund

Current Time: Mar 30, 2015 at 6:28:31 PM

Latest Report: Mar 30, 2015 at 5:00 PM


Visibility: 28 mi

Pressure: 29.23 "Hg

Humidity: 49%

Dew point: 2 °F

Location of IttoqqortoormiitLocation

Historic Weather in Ittoqqortoormiit — Graph

°F

Ittoqqortoormiit temperature yesterday

Maximum temperature yesterday: 14 °F (at 1:00 PM)
Minimum temperature yesterday: 2 °F (at 11:00 PM)
Average temperature yesterday: 9 °F

Past Weeks' High & Low Weather Summary

 TemperatureHumidityPressure
High29 °F (Mar 15, 3:00 PM)96% (Mar 17, 4:00 AM)30.76 "Hg (Mar 17, 4:00 AM)
Low-12 °F (Mar 20, 9:00 PM)37% (Mar 15, 10:00 PM)29.12 "Hg (Mar 28, 5:00 AM)
Average9 °F79%29.79 "Hg
* Reported Mar 15 3:00 PM — Mar 30 4:00 PM, Ittoqqortoormiit, Weather by CustomWeather, © 2015

Note: Actual official high and low records may vary slightly from our data, if they occured in-between our weather recording intervals... More about our weather records

Advertising

Ittoqqortoormiit weather history for previous 24 hours

 ConditionsComfort  
Time TempWeatherWind HumidityBarometerVisibility
4:00 PM
Mon, Mar 30
17 °FPassing clouds.3 mph41%29.23 "Hg28 mi
3:00 PM15 °FSunny.2 mph48%29.23 "Hg25 mi
2:00 PM12 °FSunny.7 mph56%29.26 "Hg28 mi
1:00 PM6 °FSunny.6 mph63%29.26 "Hg31 mi
12:00 PM3 °FSunny.3 mph64%29.26 "Hg28 mi
11:00 AM-2 °FSunny.7 mph75%29.26 "Hg31 mi
10:00 AM5 °FSunny.5 mph81%29.26 "Hg28 mi
9:00 AM3 °FSunny.2 mph88%29.26 "Hg28 mi
8:00 AM-4 °FSnow flurries. Sunny.5 mph85%29.26 "Hg8 mi
7:00 AM-4 °FSnow flurries. Sunny.3 mph83%29.23 "Hg31 mi
6:00 AM-1 °FSnow flurries. Passing clouds.5 mph89%29.23 "Hg2 mi
5:00 AM-2 °FClear.1 mph93%29.23 "Hg31 mi
4:00 AM1 °FClear.1 mph87%29.23 "Hg31 mi
3:00 AM0 °FClear.5 mph83%29.23 "Hg31 mi
2:00 AM1 °FClear.9 mph83%29.23 "HgN/A
1:00 AM2 °FClear.8 mph81%29.23 "Hg31 mi
12:00 AM1 °FClear.9 mph80%29.23 "Hg31 mi
11:00 PM
Sun, Mar 29
2 °FClear.8 mph80%29.23 "Hg31 mi
10:00 PM2 °FLight snow. Passing clouds.8 mph83%29.21 "Hg31 mi
8:00 PM5 °FLight snow. Overcast.1 mph89%29.21 "Hg1 mi
7:00 PM8 °FLight snow. Partly sunny.9 mph86%29.21 "Hg28 mi
6:00 PM13 °FPartly sunny.2 mph68%29.18 "Hg25 mi
Weather by CustomWeather, © 2015

See weather overviewHow to use our weather pages